Voltar ao catálogo

CZ-6A DEB

AtivoPO
NORAD 64641·DEBRIS·🇨🇳 China

Lançado Aug 6, 2024 de Taiyuan Satellite Launch Center

Loading…

Próximas Passagens (próximas 24 horas)

TLE

AtualizadoSource: Space-Track

Época: Sep 13, 2026, 06:14 UTC

1 64641U 24140AEF 26256.26023661  .00001127  00000-0  64307-3 0  9993
2 64641  88.8657 255.0317 0117503 335.1393  24.4155 14.05671954106877

Acompanhe CZ-6A DEB em tempo real com AllMySat

Download on the App Store